User: anonymous   Login
Location: Embarras
(53.3000°N, 116.9000°W)
Time: 07:03:42
(UTC+00:00)
Language:

deb r/b Ablestar - Orbit

View from above orbital plane
View from above orbital plane
View from above satellite
View from above satellite

Ground track
Ground track

The orbit data is extracted from the following two-line orbital elements,

1 00235U 61015BT  24141.45752189  .00001474  00000-0  77694-3 0  9998
2 00235  66.9570  12.2718 0163431 187.7022 172.1557 14.09979986214446
Epoch (UTC): 20 May 2024 10:58:49
Eccentricity: 0.0163431
inclination: 66.9570°
perigee height: 741 km
apogee height: 978 km
right ascension of ascending node: 12.2718°
argument of perigee: 187.7022°
revolutions per day: 14.09979986
mean anomaly at epoch: 172.1557°
orbit number at epoch: 21444

The dashed part of the orbit path shows where the satellite is in the earth's shadow,  

DLR